Barranquilla, Colombia

11:19 AM COT en Enero 29, 2015 (GMT -0500)
Simon Bolivar | Change Station
CLOSE
Current Station
Aeropuerto
Location: Santa Marta,
Altura: 13 ft
Estaciones meteorológicas cercanas

Alt 13 ft 11.12 °N, 74.23 °W | Updated 19 minutes ago

Scattered Clouds
Nubes dispersas
86 ° F
Sensación térmica 97 ° F
N
7
Viento Variable Viento desde OSO

Hoy
Alta -- | Baja -- ° F
--% Posibilidad de precipitaciones
Ayer
Alta -- | Baja -- ° F
Precip. -- pul
6:22 AM 6:01 PM
Gibosa creciente, 75% visible
Presión 29.86 pul
Visibilidad 6.2 Millas
Nubes Baja 2000 ft
Nubes dispersas 20000 ft
Índice de calor 97 ° F
Punto de rocío 77 ° F
Humedad 74%
Precipitaciones 0.00 pul
Espesor de la nieve No disponible.
UV 10 de una escala de 12
Polen No disponible.
Calidad del aire No disponible.
Flu Activity No disponible.
METAR SKSM 291600Z 25006KT 9999 FEW020 SCT200 30/25 A2986

More Conditions Fewer Conditions

Presión 29.86 pul
Visibilidad 6.2 Millas
Nubes Baja 2000 ft
Nubes dispersas 20000 ft
Índice de calor 97 ° F
Punto de rocío 77 ° F
Humedad 74%
Precipitaciones 0.00 pul
Espesor de la nieve No disponible.
UV 10 de una escala de 12
Polen No disponible.
Calidad del aire No disponible.
Flu Activity No disponible.
METAR SKSM 291600Z 25006KT 9999 FEW020 SCT200 30/25 A2986

More Conditions Fewer Conditions

10-Day Weather Forecast

Almanac

Astronomía

Jan. 29, 2015 Salida Puesta
Hora real
Crepúsculo civil
Crepúsculo náutico
Crepúsculo astronómico
Luna
Horas de luz
Horas de luz
Tomorrow will be .
, % of the Moon is Illuminated

Extremos de hoy

Máximos del país Bajas del país

Community

WunderPhotos

Upload Photos

1,791,464 ¡fotos cargadas!

WunderBlogs® & News

Nearby

Calidad del aire

  Calidad del aire Índice AQ Contaminante
Not available.

Grosos de nieve

Estación Profundido Altura

Actividad de terremotos

Ciudad Distance Mag. Tiempo y dato
Magnitud mínima muestra es 2,5.

Temperaturas de aguas costeras

Lugar Temperatura

Estaciones meteorológicas cercanas